EW5860 Weather Reports


time (UTC)temp
C
wind
direction
speed
KPH
gust
KPH
rain 1hr
cm
rain 24hr
cm
rain mn
cm
humidity
%
barometer
mb
20260506004524 23 242 3.2 12.9 0.00 0.00 0.00 44 1008.5
20260506003024 23 241 1.6 12.9 0.00 0.00 0.00 43 1008.4
20260506001523 24 180 11.3 22.5 0.00 0.00 0.00 42 1008.3
20260506000023 24 173 8.0 16.1 0.00 0.00 0.00 42 1008.1
20260505234522 24 230 3.2 12.9 0.00 0.00 0.00 41 1008.1
20260505233027 25 229 3.2 19.3 0.00 0.00 0.00 41 1007.8
20260505231523 25 211 6.4 12.9 0.00 0.00 0.00 41 1007.8
20260505230021 25 162 3.2 17.7 0.00 0.00 0.00 40 1007.8
20260505224520 25 231 9.7 22.5 0.00 0.00 0.00 38 1007.8
20260505223019 26 238 9.7 27.4 0.00 0.00 0.00 38 1007.9
20260505221519 26 114 14.5 29.0 0.00 0.00 0.00 36 1007.7
20260505220030 26 183 12.9 27.4 0.00 0.00 0.00 36 1007.7
20260505214522 26 217 12.9 30.6 0.00 0.00 0.00 37 1007.6
20260505213017 26 220 12.9 33.8 0.00 0.00 0.00 36 1007.7
20260505211517 26 193 6.4 33.8 0.00 0.00 0.00 37 1007.5
20260505210016 26 120 11.3 33.8 0.00 0.00 0.00 37 1007.5
20260505204515 26 219 11.3 30.6 0.00 0.00 0.00 37 1007.6
20260505203015 26 236 9.7 30.6 0.00 0.00 0.00 38 1007.7
20260505201512 26 217 14.5 27.4 0.00 0.00 0.00 37 1007.8
20260505200016 26 180 16.1 33.8 0.00 0.00 0.00 37 1008.1
20260505194511 26 238 12.9 30.6 0.00 0.00 0.00 37 1008.0
20260505193014 26 184 14.5 29.0 0.00 0.00 0.00 37 1008.1
20260505191521 26 165 9.7 25.7 0.00 0.00 0.00 37 1008.2
20260505190011 26 207 8.0 27.4 0.00 0.00 0.00 36 1008.3
20260505184508 27 180 6.4 29.0 0.00 0.00 0.00 39 1008.4
20260505183007 27 260 9.7 22.5 0.00 0.00 0.00 41 1008.4
20260505181505 26 213 9.7 30.6 0.00 0.00 0.00 41 1008.5
20260505180005 26 177 11.3 25.7 0.00 0.00 0.00 41 1008.9
20260505174505 26 264 12.9 29.0 0.00 0.00 0.00 37 1008.9
20260505173002 26 187 9.7 27.4 0.00 0.00 0.00 39 1008.9
20260505171501 26 172 14.5 30.6 0.00 0.00 0.00 35 1009.0
20260505170058 26 173 9.7 30.6 0.00 0.00 0.00 38 1009.3
20260505164600 26 176 9.7 22.5 0.00 0.00 0.00 40 1009.6
20260505163059 26 178 14.5 25.7 0.00 0.00 0.00 41 1009.8
20260505161602 26 186 9.7 25.7 0.00 0.00 0.00 42 1009.7
20260505153050 25 169 9.7 16.1 0.00 0.00 0.00 43 1010.0
20260505151547 25 251 11.3 22.5 0.00 0.00 0.00 44 1010.1
20260505124517 18 232 9.7 19.3 0.00 0.00 0.00 60 1011.1
20260505123013 18 199 8.0 14.5 0.00 0.00 0.00 62 1011.0
20260505121526 17 211 4.8 14.5 0.00 0.00 0.00 64 1010.9
20260505120007 17 200 12.9 25.7 0.00 0.00 0.00 65 1010.5
20260505114506 16 190 9.7 16.1 0.00 0.00 0.00 66 1010.5
20260505113005 16 184 8.0 17.7 0.00 0.00 0.00 67 1010.5
20260505111504 16 215 6.4 17.7 0.00 0.00 0.00 67 1010.4
20260505101559 15 213 6.4 19.3 0.00 0.00 0.00 70 1010.0
20260505100055 15 193 9.7 17.7 0.00 0.00 0.00 69 1009.9
20260505094614 15 296 8.0 19.3 0.00 0.00 0.00 70 1009.9
20260505093057 15 196 8.0 19.3 0.00 0.00 0.00 70 1009.8
20260505091601 15 215 8.0 17.7 0.00 0.00 0.00 70 1009.7
20260505090053 15 261 8.0 16.1 0.00 0.00 0.00 69 1009.7
20260505084555 16 207 6.4 14.5 0.00 0.00 0.00 69 1009.6
20260505083059 16 200 6.4 11.3 0.00 0.00 0.00 68 1009.7
20260505081556 16 230 3.2 8.0 0.00 0.00 0.00 67 1009.7
20260505080050 16 187 3.2 16.1 0.00 0.00 0.00 66 1009.6
20260505074545 16 230 6.4 17.7 0.00 0.00 0.00 65 1009.7
20260505073046 16 207 8.0 16.1 0.00 0.00 0.00 65 1009.6
20260505071548 16 202 9.7 19.3 0.00 0.00 0.00 65 1009.7
20260505070041 16 240 11.3 24.1 0.00 0.00 0.00 64 1009.8
20260505064541 16 196 11.3 19.3 0.00 0.00 0.00 64 1009.7
20260505063039 16 217 8.0 19.3 0.00 0.00 0.00 64 1009.7
20260505061537 16 207 14.5 22.5 0.00 0.00 0.00 63 1009.7
20260505060037 16 185 11.3 19.3 0.00 0.00 0.00 62 1009.8
20260505054531 16 213 4.8 22.5 0.00 0.00 0.00 61 1009.7
20260505053034 16 204 9.7 17.7 0.00 0.00 0.00 61 1009.7
20260505051528 16 187 8.0 19.3 0.00 0.00 0.00 59 1009.7
20260505041518 16 229 4.8 14.5 0.00 0.00 0.00 55 1009.8
20260505040016 17 161 3.2 12.9 0.00 0.00 0.00 53 1009.6
20260505034515 17 211 4.8 12.9 0.00 0.00 0.00 52 1009.5
20260505033017 17 216 3.2 11.3 0.00 0.00 0.00 52 1009.5
20260505031514 17 193 4.8 11.3 0.00 0.00 0.00 51 1009.5
20260505030014 17 194 3.2 14.5 0.00 0.00 0.00 51 1009.7
20260505024513 17 216 1.6 17.7 0.00 0.00 0.00 51 1009.7
20260505023013 17 198 1.6 8.0 0.00 0.00 0.00 50 1009.7
20260505021514 17 148 4.8 14.5 0.00 0.00 0.00 49 1009.9
20260505020016 17 242 3.2 11.3 0.00 0.00 0.00 49 1010.0
20260505014515 17 173 3.2 8.0 0.00 0.00 0.00 49 1009.9
20260505013011 17 219 3.2 9.7 0.00 0.00 0.00 49 1009.8
20260505011509 17 174 1.6 9.7 0.00 0.00 0.00 50 1009.7
20260505010010 18 225 1.6 6.4 0.00 0.00 0.00 48 1009.6